Regional Weather Roundup
Issued by NWS State College, PA

Home | Current Version | Previous Version | Graphics & Text | Print | Product List | Glossary Off
Versions: 1 2 3 4 5 6 7 8 9 10 11 12 13 14 15 16 17 18 19 20 21 22 23 24 25 26 27 28 29 30 31 32 33 34 35 36 37 38 39 40 41 42 43 44 45 46 47 48 49 50

000
ASUS41 KCTP 271210
RWRCTP

REGIONAL WEATHER ROUNDUP
NATIONAL WEATHER SERVICE STATE COLLEGE PA
700 AM EST TUE JAN 27 2015

Note: "fair" indicates few or no clouds below 12,000 feet with no
significant weather and/or obstructions to visibility.

* = STATION THAT DOES NOT REPORT PRECIPITATION /E.G. RAIN...SNOW...ETC/
    THUNDER OR FOG.

PAZ002>004-007>009-013>016-020>023-029>032-271300-
WESTERN PENNSYLVANIA

CITY           SKY/WX    TMP DP  RH WIND       PRES   REMARKS
ERIE           LGT SNOW  20  14  77 NE9       29.95R WCI   9
MEADVILLE      CLOUDY    16  12  84 N9        29.87R FOG     WCI   4
FRANKLIN*      CLOUDY    16  10  79 N3        29.86R
NEW CASTLE     FLURRIES  18  14  84 NW7       29.91R WCI   9
BEAVER COUNTY  FLURRIES  18  16  93 NW7       29.87  WCI   8
BUTLER*        CLOUDY    18  16  93 NW3       29.88R
PITTSBURGH INT FLURRIES  19  15  84 NW9       29.87R WCI   8
PITTSBURGH     LGT SNOW  18  13  80 NW6       29.86R WCI  10
INDIANA*       CLOUDY    19  18  93 NW5G12    29.87R FOG     WCI  13
LATROBE        CLOUDY    19  19 100 NW9       29.88R WCI   9
WASHINGTON CO* CLOUDY    19  12  73 CALM      29.89R
$$

PAZ004>006-010>012-017>019-024>028-033>037-041-042-045-046-049>053-271300-
CENTRAL PENNSYLVANIA

CITY           SKY/WX    TMP DP  RH WIND       PRES   REMARKS
BRADFORD       LGT SNOW  13   7  77 N3        29.78R
DUBOIS         LGT SNOW  15  12  88 NW7       29.79R FOG     WCI   5
CLEARFIELD     LGT SNOW  17  13  84 NW3       29.81R FOG
JOHNSTOWN      LGT SNOW  16  13  88 NW13      29.75R FOG     WCI   2
ALTOONA        FLURRIES  20  16  84 NW6       29.79R WCI  12
STATE COLLEGE  LGT SNOW  19  16  86 N8        29.81R FOG     WCI   9
WILLIAMSPORT   CLOUDY    21  13  71 W7        29.83R WCI  12
SELINSGROVE    CLOUDY    24  17  74 N8        29.82R
FT INDIANTOWN  PTCLDY    26  17  70 N8        29.76S
CAPITAL CITY   LGT SNOW  26  20  77 NW7       29.78S
HARRISBURG     FLURRIES  26  20  77 NW13      29.77S WCI  15
YORK           FLURRIES  26  21  81 NW6       29.77R
$$

PAZ038>040-043-044-047-048-054-055-060>062-067>071-271300-
EASTERN PENNSYLVANIA

CITY           SKY/WX    TMP DP  RH WIND       PRES   REMARKS
SCRANTON       LGT SNOW  18  12  77 N6        29.76R WCI  10
MOUNT POCONO   LGT SNOW  15  10  80 NW17      29.63R WCI  -1
ALLENTOWN      CLOUDY    24  16  71 NW9       29.74R WCI  14
QUAKERTOWN*    NOT AVBL
READING        LGT SNOW  26  20  77 NW8       29.75R
LANCASTER      FLURRIES  25  20  81 NW12      29.75R WCI  14
COATESVILLE    LGT SNOW  27  23  86 NW8       29.72R
POTTSTOWN      FLURRIES  25  19  78 NW10      29.74S WCI  15
BLUE BELL      CLOUDY    27  23  86 NW5       29.72R
DOYLESTOWN     LGT SNOW  22  21  96 NW7       29.70S FOG     WCI  13
WILLOW GROVE   NOT AVBL
NORTH PHILA    LGT SNOW  27  19  72 NW14      29.73R
PHILADELPHIA   FLURRIES  26  21  81 N14       29.73S WCI  14
$$



USA.gov is the U.S. government's official web portal to all federal, state and local government web resources and services.